When you browse on this site, cookies collect data to enhance your experience and personalize the content and advertising you see.
Visit our Privacy Policy to learn more. By continuing to use the site, you agree to this use of cookies and data.
  • In Lithuania
  • List of Countries
  • For 7 days
  • Water Temperature
  • Satellite Maps
  • Weather Map
  • Weather Widgets
  • user-avatar
    Login

    Hourly Weather Varenikovskoe

    Today, 23 July, Tuesday

    Time Temperature Precipitation Wind Pressure Humidity
    00:00 +25°C° 0 mm 2 mps 748 mmHg 51%
    01:00 +25°C° 0 mm 2 mps 748 mmHg 50%
    02:00 +25°C° 0 mm 2 mps 747 mmHg 49%
    03:00 +25°C° 0 mm 2 mps 748 mmHg 49%
    04:00 +25°C° 0.2 mm 2 mps 748 mmHg 52%
    05:00 +24°C° 0.2 mm 2 mps 747 mmHg 56%
    06:00 +24°C° 0.2 mm 2 mps 747 mmHg 59%
    07:00 +24°C° 0.5 mm 1 mps 747 mmHg 62%
    08:00 +24°C° 0.5 mm 1 mps 747 mmHg 64%
    09:00 +24°C° 0.5 mm 1 mps 746 mmHg 67%
    10:00 +25°C° 0.4 mm 2 mps 746 mmHg 66%
    11:00 +25°C° 0.4 mm 2 mps 746 mmHg 64%
    12:00 +26°C° 0.4 mm 3 mps 746 mmHg 63%
    13:00 +26°C° 0.1 mm 3 mps 746 mmHg 61%
    14:00 +27°C° 0.1 mm 4 mps 746 mmHg 59%
    15:00 +28°C° 0.1 mm 4 mps 745 mmHg 57%
    16:00 +27°C° 0.1 mm 3 mps 745 mmHg 59%
    17:00 +27°C° 0.1 mm 3 mps 746 mmHg 61%
    18:00 +26°C° 0.1 mm 3 mps 746 mmHg 63%
    19:00 +26°C° 0 mm 3 mps 745 mmHg 65%
    20:00 +25°C° 0 mm 3 mps 745 mmHg 66%
    21:00 +25°C° 0 mm 3 mps 745 mmHg 68%
    22:00 +25°C° 0 mm 3 mps 745 mmHg 70%
    23:00 +24°C° 0 mm 3 mps 745 mmHg 71%

    Tomorrow, 24 July, Wednesday

    Time Temperature Precipitation Wind Pressure Humidity
    00:00 +24°C° 0 mm 2 mps 745 mmHg 73%
    01:00 +24°C° 0.1 mm 2 mps 744 mmHg 75%
    02:00 +23°C° 0.1 mm 2 mps 744 mmHg 77%
    03:00 +23°C° 0.1 mm 1 mps 744 mmHg 80%
    04:00 +23°C° 0.6 mm 1 mps 744 mmHg 81%
    05:00 +23°C° 0.6 mm 1 mps 744 mmHg 82%
    06:00 +23°C° 0.6 mm 1 mps 744 mmHg 84%
    07:00 +24°C° 0.5 mm 1 mps 744 mmHg 78%
    08:00 +25°C° 0.5 mm 2 mps 744 mmHg 72%
    09:00 +26°C° 0.5 mm 2 mps 744 mmHg 66%
    10:00 +27°C° 0.5 mm 2 mps 744 mmHg 62%
    11:00 +28°C° 0.5 mm 2 mps 744 mmHg 59%
    12:00 +29°C° 0.5 mm 2 mps 744 mmHg 55%
    13:00 +29°C° 0.3 mm 3 mps 744 mmHg 54%
    14:00 +30°C° 0.3 mm 3 mps 743 mmHg 52%
    15:00 +30°C° 0.3 mm 3 mps 743 mmHg 51%
    16:00 +30°C° 0 mm 3 mps 743 mmHg 52%
    17:00 +30°C° 0 mm 2 mps 744 mmHg 53%
    18:00 +30°C° 0 mm 2 mps 744 mmHg 54%
    19:00 +29°C° 0 mm 2 mps 744 mmHg 56%
    20:00 +28°C° 0 mm 2 mps 744 mmHg 58%
    21:00 +27°C° 0 mm 2 mps 744 mmHg 61%
    22:00 +26°C° 0 mm 2 mps 744 mmHg 63%
    23:00 +25°C° 0 mm 2 mps 744 mmHg 66%

    Day after tomorrow, 25 July, Thursday

    Time Temperature Precipitation Wind Pressure Humidity
    00:00 +25°C° 0 mm 2 mps 744 mmHg 68%
    01:00 +24°C° 0 mm 1 mps 744 mmHg 70%
    02:00 +24°C° 0 mm 1 mps 744 mmHg 71%
    03:00 +22°C° 0 mm 0 mps 744 mmHg 73%
    04:00 +22°C° 0.1 mm 0 mps 744 mmHg 71%
    05:00 +25°C° 0.1 mm 1 mps 744 mmHg 69%
    06:00 +25°C° 0.1 mm 1 mps 744 mmHg 68%
    07:00 +26°C° 0.4 mm 2 mps 744 mmHg 66%
    08:00 +26°C° 0.4 mm 2 mps 744 mmHg 64%
    09:00 +27°C° 0.4 mm 3 mps 744 mmHg 62%
    10:00 +28°C° 0.3 mm 2 mps 744 mmHg 57%
    11:00 +29°C° 0.3 mm 2 mps 744 mmHg 52%
    12:00 +30°C° 0.3 mm 1 mps 744 mmHg 47%
    13:00 +29°C° 0.8 mm 3 mps 744 mmHg 57%
    14:00 +27°C° 0.8 mm 4 mps 744 mmHg 66%
    15:00 +24°C° 0.8 mm 6 mps 744 mmHg 76%
    16:00 +25°C° 0.3 mm 5 mps 744 mmHg 76%
    17:00 +25°C° 0.3 mm 4 mps 744 mmHg 77%
    18:00 +23°C° 0.3 mm 4 mps 745 mmHg 77%
    19:00 +23°C° 0.1 mm 4 mps 745 mmHg 78%
    20:00 +23°C° 0.1 mm 4 mps 745 mmHg 80%
    21:00 +22°C° 0.1 mm 5 mps 745 mmHg 82%
    22:00 +22°C° 0 mm 5 mps 745 mmHg 82%
    23:00 +22°C° 0 mm 5 mps 745 mmHg 82%

    26 July, Friday

    Time Temperature Precipitation Wind Pressure Humidity
    00:00 +22°C° 0 mm 5 mps 745 mmHg 82%
    01:00 +21°C° 0 mm 5 mps 745 mmHg 82%
    02:00 +21°C° 0 mm 5 mps 745 mmHg 82%
    03:00 +21°C° 0 mm 4 mps 745 mmHg 82%
    04:00 +21°C° 0.1 mm 4 mps 746 mmHg 81%
    05:00 +21°C° 0.1 mm 5 mps 746 mmHg 79%
    06:00 +21°C° 0.1 mm 5 mps 746 mmHg 78%
    07:00 +22°C° 0 mm 5 mps 746 mmHg 72%
    08:00 +25°C° 0 mm 5 mps 746 mmHg 65%
    09:00 +27°C° 0 mm 5 mps 746 mmHg 58%
    10:00 +28°C° 0 mm 5 mps 746 mmHg 53%
    11:00 +29°C° 0 mm 6 mps 746 mmHg 47%
    12:00 +30°C° 0 mm 6 mps 746 mmHg 42%
    13:00 +32°C° 0 mm 5 mps 745 mmHg 40%
    14:00 +32°C° 0 mm 5 mps 745 mmHg 39%
    15:00 +32°C° 0 mm 5 mps 745 mmHg 37%
    16:00 +32°C° 0 mm 5 mps 745 mmHg 39%
    17:00 +30°C° 0 mm 4 mps 745 mmHg 41%
    18:00 +30°C° 0 mm 4 mps 745 mmHg 43%
    19:00 +28°C° 0 mm 3 mps 745 mmHg 47%
    20:00 +27°C° 0 mm 3 mps 746 mmHg 50%
    21:00 +26°C° 0 mm 3 mps 746 mmHg 54%
    22:00 +26°C° 0 mm 3 mps 746 mmHg 55%
    23:00 +25°C° 0 mm 3 mps 745 mmHg 56%

    27 July, Saturday

    Time Temperature Precipitation Wind Pressure Humidity
    00:00 +25°C° 0 mm 3 mps 745 mmHg 56%
    01:00 +25°C° 0 mm 3 mps 745 mmHg 58%
    02:00 +24°C° 0 mm 3 mps 745 mmHg 59%
    03:00 +24°C° 0 mm 3 mps 745 mmHg 61%
    04:00 +24°C° 0 mm 2 mps 745 mmHg 62%
    05:00 +24°C° 0 mm 2 mps 745 mmHg 62%
    06:00 +24°C° 0 mm 2 mps 745 mmHg 63%
    07:00 +25°C° 0 mm 2 mps 745 mmHg 59%
    08:00 +26°C° 0 mm 2 mps 745 mmHg 55%
    09:00 +27°C° 0 mm 2 mps 744 mmHg 51%
    10:00 +28°C° 0 mm 2 mps 744 mmHg 47%
    11:00 +29°C° 0 mm 2 mps 744 mmHg 44%
    12:00 +30°C° 0 mm 2 mps 744 mmHg 41%
    13:00 +31°C° 0 mm 2 mps 744 mmHg 40%
    14:00 +31°C° 0 mm 2 mps 743 mmHg 39%
    15:00 +32°C° 0 mm 1 mps 743 mmHg 37%
    16:00 +31°C° 0 mm 1 mps 743 mmHg 38%
    17:00 +31°C° 0 mm 1 mps 743 mmHg 39%
    18:00 +31°C° 0 mm 1 mps 742 mmHg 39%
    19:00 +30°C° 0 mm 2 mps 743 mmHg 43%
    20:00 +28°C° 0 mm 2 mps 743 mmHg 47%
    21:00 +27°C° 0 mm 2 mps 743 mmHg 51%
    22:00 +26°C° 0 mm 2 mps 742 mmHg 53%
    23:00 +26°C° 0 mm 2 mps 742 mmHg 54%

    28 July, Sunday

    Time Temperature Precipitation Wind Pressure Humidity
    00:00 +25°C° 0 mm 2 mps 742 mmHg 56%
    01:00 +25°C° 0 mm 2 mps 742 mmHg 55%
    02:00 +24°C° 0 mm 1 mps 742 mmHg 55%
    03:00 +24°C° 0 mm 1 mps 741 mmHg 54%
    04:00 +24°C° 0 mm 1 mps 741 mmHg 54%
    05:00 +25°C° 0 mm 1 mps 741 mmHg 54%
    06:00 +25°C° 0 mm 1 mps 741 mmHg 55%
    07:00 +27°C° 0 mm 1 mps 741 mmHg 49%
    08:00 +28°C° 0 mm 1 mps 741 mmHg 44%
    09:00 +30°C° 0 mm 1 mps 741 mmHg 39%
    10:00 +31°C° 0 mm 1 mps 740 mmHg 37%
    11:00 +32°C° 0 mm 1 mps 740 mmHg 36%
    12:00 +33°C° 0 mm 1 mps 740 mmHg 34%
    13:00 +34°C° 0 mm 1 mps 740 mmHg 33%
    14:00 +34°C° 0 mm 1 mps 739 mmHg 32%
    15:00 +35°C° 0 mm 1 mps 739 mmHg 32%
    16:00 +35°C° 0 mm 1 mps 739 mmHg 32%
    17:00 +34°C° 0 mm 1 mps 739 mmHg 33%
    18:00 +34°C° 0 mm 1 mps 738 mmHg 34%
    19:00 +32°C° 0 mm 1 mps 739 mmHg 37%
    20:00 +31°C° 0 mm 1 mps 739 mmHg 41%
    21:00 +29°C° 0 mm 2 mps 739 mmHg 45%
    22:00 +29°C° 0 mm 2 mps 739 mmHg 45%
    23:00 +29°C° 0 mm 2 mps 738 mmHg 46%
    Show more